Wind_Speed
25 26 27 26 24 22 21 22 24 26 24 22 21 21 20 20 19 19 18 18 19 20 20 20 21 22 22 22 22 22 22 21 21 22 23 24 24 25 25 26 27 28 28 29 29 29 30 31 32 33 32 33 34 35 36 36 37 38 39 40 41 41 43 44 47 53 55 51 48 48 46 45 46 46 44 44 43 41 40 39 37 37 35 30 26
25 25 25 25 23 20 20 23 26 27 26 23 23 23 22 22 22 22 21 21 21 21 22 22 22 23 23 23 22 22 22 22 22 23 24 25 25 26 26 27 28 29 29 29 29 28 28 29 31 31 29 30 32 32 34 35 36 37 38 39 41 41 41 42 45 49 54 53 49 48 47 46 46 46 44 43 43 42 41 40 39 38 37 35 32
26 25 24 22 20 19 21 24 26 27 25 23 23 24 23 23 23 24 23 23 23 23 23 23 23 23 23 23 23 23 23 23 23 24 26 27 27 27 27 27 27 28 28 29 29 27 28 29 30 29 28 29 31 31 31 33 33 35 37 38 39 41 40 41 43 46 51 53 51 48 47 47 47 46 45 44 43 42 42 41 40 39 38 38 37
27 26 25 24 22 22 22 23 23 24 23 21 21 23 24 25 25 26 26 25 25 25 24 24 24 23 24 23 24 25 25 26 27 27 28 28 28 28 27 26 27 27 27 28 27 27 28 29 30 29 28 29 31 31 31 31 32 33 35 36 37 39 40 40 42 44 47 51 52 49 48 48 48 46 46 45 44 43 44 43 42 41 40 40 40
28 27 26 25 24 23 22 21 20 20 20 19 19 21 23 26 28 28 28 26 25 25 24 24 24 24 25 25 25 26 27 28 28 28 27 27 27 28 27 27 27 28 28 28 28 28 29 30 31 29 29 30 32 32 31 32 32 32 34 35 35 37 38 39 41 42 44 49 52 51 48 48 48 48 46 45 44 44 44 44 43 43 42 42 42
31 29 28 27 25 24 23 21 21 20 19 19 19 20 21 24 26 27 27 26 26 25 25 25 26 26 26 26 26 26 27 28 28 27 27 27 27 28 29 29 30 30 31 31 31 32 32 33 33 32 32 33 34 34 33 33 33 34 34 35 35 34 36 38 39 41 43 46 50 51 50 49 48 48 47 46 46 46 45 45 45 44 43 43 44
33 32 31 30 29 27 26 25 24 23 22 22 21 21 22 22 23 24 25 26 27 27 28 28 28 27 27 26 26 26 26 27 27 27 27 27 28 29 30 31 32 32 33 34 34 34 35 35 35 35 34 34 35 35 34 34 34 35 35 35 34 34 36 37 38 39 42 44 47 48 49 48 47 48 48 47 46 45 44 44 44 44 43 43 44
35 34 33 32 32 31 31 30 29 28 27 26 25 24 24 23 23 24 24 26 27 27 28 29 29 29 29 28 27 27 27 27 27 27 28 28 29 30 31 32 33 34 34 34 34 34 34 35 35 35 34 34 34 34 34 34 34 36 36 35 34 34 35 37 38 39 41 43 45 46 47 47 47 48 47 46 44 45 45 43 44 47 46 44 45
38 37 35 34 33 33 34 34 34 33 32 30 29 28 27 26 25 25 24 24 25 26 27 27 28 29 29 29 29 29 29 29 28 28 29 29 30 31 32 32 33 34 34 34 34 34 33 34 34 34 34 34 34 34 34 34 34 35 36 35 34 35 35 37 38 39 40 42 43 45 46 47 48 48 46 47 47 47 46 43 45 48 46 44 46
39 39 38 37 35 34 34 35 36 36 35 33 32 31 30 29 27 26 25 24 24 25 25 26 27 28 28 29 29 29 30 30 30 30 30 31 31 32 33 33 34 35 36 36 35 34 34 33 33 33 33 33 33 33 33 33 33 34 35 35 34 35 35 37 38 39 40 42 44 44 45 47 49 48 47 49 49 48 46 46 47 48 46 45 47
37 37 38 38 37 37 36 36 36 36 35 34 33 32 30 29 27 26 25 24 24 24 25 25 26 27 28 29 30 31 32 32 32 32 32 32 32 33 34 34 35 36 37 37 37 36 35 34 34 33 33 33 34 34 34 34 34 34 35 35 34 34 35 36 38 39 39 42 44 44 45 48 50 49 48 49 48 47 47 47 47 47 45 45 46
39 38 37 37 37 37 37 37 37 36 35 34 33 32 31 30 28 27 26 25 25 25 25 25 26 27 28 29 30 32 33 34 34 33 33 33 33 34 35 35 36 36 37 38 38 38 38 37 36 35 34 35 35 36 37 37 37 37 37 37 37 36 35 36 38 39 39 40 42 43 45 48 50 50 50 49 47 48 49 48 47 47 46 44 45
41 41 40 39 38 38 38 38 38 37 36 35 34 33 32 31 30 29 28 27 27 26 26 26 27 28 29 30 31 33 35 35 35 34 34 34 34 35 36 36 37 37 37 38 38 39 39 38 38 37 36 36 37 38 39 39 39 40 40 40 40 40 39 38 38 39 39 39 41 43 46 48 50 51 50 48 48 48 49 48 48 47 45 45 47
41 41 42 42 41 40 39 39 38 38 37 36 35 34 33 33 32 31 30 29 29 28 27 28 28 28 29 30 32 34 35 35 35 35 35 35 35 35 36 37 37 38 38 38 38 38 39 39 39 39 39 39 39 39 39 40 41 42 42 43 43 43 43 42 42 42 40 40 41 44 46 47 48 50 49 47 47 47 47 46 46 47 48 50 50
42 42 42 42 42 42 42 41 40 39 37 36 36 35 35 35 34 33 33 32 32 31 29 29 29 28 28 29 30 32 33 33 34 34 34 34 34 35 36 36 37 38 38 38 38 38 39 39 40 41 41 41 40 40 40 41 42 43 44 44 44 45 45 45 45 44 40 39 41 45 46 47 46 47 47 47 47 48 48 47 46 49 51 52 52
43 43 43 42 42 42 42 42 41 40 39 37 36 35 34 35 35 34 35 34 34 33 32 30 29 29 29 29 29 31 31 32 32 33 33 33 33 34 35 35 36 37 38 38 38 38 38 39 39 40 41 42 41 41 40 41 41 43 44 45 45 46 47 47 46 44 41 40 43 44 46 47 46 45 45 45 45 45 46 46 46 47 48 48 48
44 44 43 43 43 42 41 41 41 40 39 38 37 36 35 35 35 34 34 34 34 33 32 31 30 29 29 28 29 30 31 31 31 32 32 32 32 33 33 34 35 35 36 37 37 37 38 38 39 39 40 41 41 41 40 40 41 42 44 45 46 47 49 49 46 44 43 44 44 43 43 45 46 46 44 44 44 42 41 44 46 47 47 46 48
43 44 44 43 42 41 40 39 39 38 37 36 36 36 36 36 36 35 35 35 34 32 31 30 30 29 28 27 27 28 29 29 30 30 31 31 32 32 33 33 34 34 35 35 35 36 36 37 38 38 39 40 41 40 38 36 37 39 40 42 45 49 51 49 47 46 46 45 44 43 44 44 45 46 45 44 43 41 42 46 47 47 47 48 50
42 42 43 42 41 40 39 38 37 36 35 34 33 33 33 34 34 34 34 35 34 32 29 27 27 27 26 26 25 26 27 27 27 27 28 29 30 30 31 32 33 33 34 34 35 35 35 35 36 37 38 39 40 39 37 35 35 37 37 38 42 48 50 48 47 47 47 47 46 46 46 46 46 45 44 44 44 44 46 47 49 52 54 53 53
40 40 41 41 40 39 37 36 35 33 32 31 31 29 29 30 30 30 31 32 32 30 27 24 24 24 24 24 24 24 25 25 25 25 26 27 27 28 29 29 30 32 32 33 34 34 34 34 35 36 37 38 39 39 39 37 37 38 39 39 42 46 48 47 47 47 47 49 49 49 48 48 48 47 46 46 45 44 43 44 47 52 54 52 52
39 39 39 39 38 37 35 33 32 31 30 29 29 28 26 26 26 26 28 29 28 26 24 22 22 22 21 20 20 20 21 22 23 23 24 24 24 25 26 27 28 29 31 32 32 33 34 34 34 35 35 37 38 39 39 39 37 37 39 41 42 42 42 44 46 46 46 47 48 49 49 50 50 49 48 48 47 44 43 43 45 47 47 48 49
38 38 38 37 35 34 33 31 29 28 28 26 27 27 25 23 24 24 25 26 26 25 24 22 21 20 19 18 18 18 18 18 19 20 21 20 20 21 22 23 24 25 28 30 30 31 32 33 33 34 34 35 36 36 37 37 36 36 37 38 39 37 36 38 41 43 44 44 45 46 48 49 49 49 48 48 48 46 45 43 41 42 45 48 49
36 36 36 35 34 31 30 29 26 25 25 24 24 25 24 23 23 23 23 24 25 26 25 23 21 20 19 18 18 18 18 17 17 18 18 17 17 17 18 18 19 20 23 26 27 28 29 30 31 31 32 33 34 34 35 35 34 34 35 35 35 35 34 35 37 39 40 42 42 44 46 47 47 48 48 48 47 45 44 42 40 42 45 46 47
33 33 33 33 32 30 28 27 24 23 23 23 23 24 24 23 23 22 21 22 23 24 24 24 23 21 20 20 20 20 20 19 17 16 17 17 16 16 16 16 16 17 19 21 22 24 26 26 27 28 29 30 31 32 32 32 32 32 33 33 33 32 32 33 34 35 36 38 40 42 44 45 45 46 47 47 45 44 44 42 41 41 42 43 43
31 31 30 30 30 29 28 27 24 22 21 21 23 23 23 23 23 21 20 20 21 22 23 23 22 22 22 23 22 22 23 23 21 18 17 16 16 16 16 16 17 17 19 19 20 22 23 24 24 25 26 27 28 29 30 30 29 30 30 31 30 30 30 30 30 31 32 34 36 38 39 41 41 42 42 42 42 43 43 44 43 43 44 44 43
30 30 29 29 28 28 28 27 26 24 22 21 22 22 22 22 22 20 18 19 19 21 22 22 22 22 23 23 23 23 24 25 25 24 21 19 17 17 17 18 19 19 19 19 20 21 22 23 24 24 25 26 27 27 27 27 26 25 26 26 26 26 26 26 27 28 29 31 33 34 35 36 37 37 37 38 38 39 40 41 42 43 43 42 41
29 29 29 28 28 27 28 27 27 26 24 23 22 21 21 21 20 19 17 17 18 20 21 21 22 23 24 24 24 24 24 26 28 28 26 24 23 22 22 23 23 23 21 21 21 22 22 23 23 24 25 25 25 24 24 24 23 23 22 22 22 21 21 21 23 25 27 28 30 32 33 33 33 34 34 34 35 35 36 37 37 37 36 35 35
28 28 28 28 28 27 27 27 27 27 25 24 23 23 22 21 20 18 16 15 16 17 18 20 21 23 25 25 25 25 25 26 28 29 29 28 28 27 26 26 26 25 24 23 23 24 23 24 24 24 24 25 24 23 22 22 22 22 21 22 21 21 20 19 20 21 23 25 27 29 30 30 30 30 30 30 31 31 31 31 31 30 30 29 29
28 28 28 28 28 28 27 27 26 27 26 25 24 23 22 21 21 19 15 13 13 13 15 18 22 23 25 26 25 25 26 26 26 28 28 27 27 27 26 26 26 26 25 24 24 24 23 23 23 24 24 24 23 22 22 21 21 20 20 21 22 22 21 21 21 21 21 22 23 25 26 26 26 26 26 26 26 26 26 26 25 24 24 25 24
30 29 28 29 29 29 28 27 27 26 26 26 25 24 22 20 20 19 16 13 12 11 13 18 21 22 24 25 24 23 23 24 25 26 25 24 24 24 24 24 24 24 23 22 22 23 23 22 22 22 22 22 22 21 20 20 20 20 20 20 21 22 22 22 23 22 22 21 21 21 21 22 22 22 22 22 21 21 20 19 19 19 19 20 20
30 30 29 29 29 28 28 28 27 26 26 26 26 26 24 21 18 17 16 15 13 13 14 18 20 21 22 23 23 23 22 23 24 25 24 22 22 22 22 23 23 23 22 22 22 22 21 21 20 20 19 19 19 19 19 19 19 20 20 19 20 21 21 22 22 22 22 21 20 19 19 20 20 20 19 18 16 15 14 12 13 14 15 15 16
30 29 29 29 28 28 28 28 27 27 26 25 25 26 27 25 22 19 17 16 16 15 16 17 19 20 21 21 22 23 23 23 24 25 24 23 22 22 21 21 21 21 20 20 21 21 20 19 19 18 18 17 17 18 18 18 18 19 20 20 20 20 20 21 21 22 21 20 19 18 18 18 17 17 16 15 13 11 9 8 8 9 10 10 12
28 28 28 28 28 27 27 27 27 26 26 26 25 25 26 27 27 24 21 19 19 19 19 18 18 19 20 21 22 22 23 23 24 24 24 23 23 22 21 21 21 21 20 20 20 19 18 17 17 17 16 16 17 17 17 17 17 17 18 19 19 20 20 19 19 19 19 18 18 17 17 16 15 14 13 11 10 8 6 4 4 5 6 7 9
27 27 27 27 27 27 26 27 27 26 26 25 25 25 25 25 26 27 26 24 23 23 23 22 21 19 19 19 20 21 22 23 24 24 25 24 23 23 22 21 19 19 19 18 17 17 16 16 16 16 16 16 16 17 17 17 17 17 17 17 17 17 18 18 18 17 17 17 17 16 15 14 13 12 10 9 7 6 4 3 3 4 5 6 8
27 27 26 26 26 26 26 26 26 26 25 25 25 25 25 25 25 25 25 26 26 26 25 25 25 23 21 20 19 20 21 22 22 23 24 24 23 23 23 21 19 18 17 16 15 15 15 15 15 16 15 15 16 16 16 16 16 16 16 16 15 15 15 16 16 15 15 15 15 15 14 13 11 10 9 8 7 5 4 3 3 4 5 7 9
27 27 26 26 26 26 25 25 25 25 25 25 24 24 24 24 24 24 24 24 25 25 25 25 25 25 23 21 20 19 20 21 21 21 22 23 24 24 23 22 22 20 18 16 15 14 14 14 15 15 15 15 15 15 15 15 15 15 15 15 15 14 14 14 13 13 13 13 13 13 12 11 10 9 8 7 6 5 3 3 3 4 5 6 8
27 27 26 26 26 26 25 25 25 25 25 24 24 24 23 23 23 23 23 23 23 24 24 24 24 24 23 22 22 21 21 21 20 20 19 20 21 21 20 20 20 20 19 17 15 14 14 14 15 15 15 15 15 15 15 14 14 14 14 14 14 14 13 13 13 13 12 12 12 11 10 10 9 8 8 7 6 5 4 3 2 2 3 4 5
28 27 26 26 26 26 25 25 25 25 25 24 24 24 23 23 23 23 23 22 22 22 23 23 23 24 24 24 24 24 23 21 19 17 16 16 16 16 16 17 17 17 17 17 16 15 14 14 14 14 15 15 15 15 15 15 14 14 14 14 14 14 14 13 13 13 13 13 12 11 10 10 9 8 7 7 7 6 6 6 6 5 5 5 5
30 28 27 26 26 25 25 25 25 25 25 25 24 24 24 24 24 23 23 23 22 22 22 23 23 23 24 24 25 26 25 23 22 20 19 18 17 16 16 15 15 14 14 14 15 14 14 13 13 13 13 14 14 14 14 14 14 14 14 14 14 15 15 14 14 14 14 14 13 12 12 11 11 9 8 8 7 7 7 7 7 7 7 6 6
31 30 28 27 26 26 25 25 25 25 25 25 24 24 24 24 23 23 23 23 23 22 22 22 23 23 23 23 25 25 25 24 24 23 21 20 19 17 16 15 14 14 13 13 13 12 12 12 12 11 12 12 12 12 13 13 12 12 12 12 12 13 13 13 13 13 13 13 12 12 12 11 10 10 9 7 6 6 6 5 5 5 5 4 4
30 30 29 28 27 27 26 25 25 25 25 25 25 24 24 23 23 23 23 23 22 22 22 21 21 21 21 21 21 22 23 23 22 21 21 20 19 18 16 15 15 14 13 13 12 12 12 12 11 11 11 11 11 10 11 11 11 11 10 10 10 10 11 11 10 10 9 9 9 9 8 8 7 6 6 5 4 4 4 3 3 2 2 2 2
30 30 29 28 28 27 26 26 25 25 25 24 24 24 24 24 23 23 22 22 22 21 21 21 20 19 19 19 19 19 20 20 19 19 18 18 17 17 16 15 15 14 14 14 14 13 13 12 12 12 12 11 11 10 10 10 10 10 10 9 9 9 9 9 9 8 8 7 7 7 7 6 6 5 4 4 3 2 2 2 2 1 0 1 2
29 29 29 29 28 27 27 26 26 25 25 24 24 24 24 23 23 23 23 22 21 20 21 21 20 19 18 17 17 17 17 18 18 17 17 17 16 16 15 15 15 14 14 14 14 13 13 13 13 12 12 12 12 12 11 10 10 10 9 9 9 9 9 9 8 8 7 7 6 6 6 6 6 5 4 4 3 2 2 2 1 1 1 2 2
28 28 29 29 28 27 27 26 25 25 24 24 24 24 23 23 23 23 23 22 21 20 20 20 20 20 19 18 17 17 17 17 17 17 16 16 16 15 15 15 14 14 13 13 13 13 13 13 12 12 12 12 12 12 12 11 10 10 9 9 9 9 9 9 9 8 8 7 7 6 6 6 5 5 4 4 3 3 2 2 2 2 2 2 2
27 28 28 28 28 28 27 26 25 24 23 23 23 23 23 23 22 22 22 22 21 20 19 19 19 20 20 20 18 17 17 17 17 16 16 16 16 15 15 15 14 14 13 13 13 12 12 12 12 12 12 11 11 11 11 11 11 10 9 9 9 9 9 9 9 9 9 9 8 7 7 6 6 5 5 5 5 4 4 4 3 3 3 3 2
27 27 27 28 28 27 27 26 25 24 23 23 22 22 22 22 22 22 22 22 21 21 19 19 19 20 20 20 20 19 18 17 17 16 16 15 15 15 15 14 15 15 14 13 13 12 12 12 12 12 11 11 11 10 10 10 10 10 10 9 9 9 9 9 9 9 9 9 8 8 7 7 6 6 6 6 6 5 5 5 5 4 4 3 3
27 27 27 27 27 27 26 25 25 24 23 22 22 22 21 21 21 21 21 21 21 21 20 19 19 19 19 20 20 20 19 19 18 17 17 16 15 15 14 14 14 14 14 13 13 12 12 12 12 12 11 11 11 10 10 9 9 9 10 10 10 10 9 9 8 8 8 8 8 7 7 7 6 6 6 6 6 6 5 5 5 4 4 3 3
27 27 27 26 26 26 26 25 24 24 23 22 22 21 21 21 21 21 21 20 20 21 20 20 19 19 19 19 19 19 20 19 18 18 17 16 15 15 14 14 14 13 13 13 13 12 12 12 11 11 11 11 10 10 10 10 10 10 10 11 10 10 9 9 9 8 8 8 8 7 7 7 7 7 7 6 6 6 5 5 5 4 4 3 3
26 27 27 26 26 25 25 25 24 24 23 23 22 22 21 21 20 20 20 20 20 20 20 20 20 19 19 19 19 19 20 19 19 18 17 17 16 15 15 15 14 14 13 12 12 12 12 11 11 11 10 10 10 10 10 10 11 11 11 10 10 9 9 9 9 9 8 8 8 8 8 8 8 7 7 7 6 6 6 5 5 4 4 3 3
26 26 26 26 25 25 24 24 24 23 23 23 23 22 22 21 20 20 20 20 20 20 19 19 19 19 19 19 19 20 20 19 19 19 19 18 17 16 15 15 14 14 14 13 13 12 12 12 11 11 10 10 10 10 9 10 11 11 10 9 9 9 9 9 9 8 8 7 7 8 8 8 7 7 7 6 6 6 6 5 5 4 3 3 3
25 25 25 25 24 24 24 23 23 23 22 22 22 22 22 21 21 20 20 20 20 20 19 19 19 18 18 19 19 20 19 19 19 19 19 18 17 16 16 15 15 14 14 13 13 13 12 12 12 12 11 10 10 9 9 9 10 10 10 9 8 8 9 9 8 8 7 7 7 7 7 7 7 7 7 7 6 6 6 5 4 3 3 2 2
Wind_Direction
331 329 329 330 328 324 322 324 325 321 312 302 293 285 280 278 277 276 276 275 274 275 276 277 277 277 277 276 277 276 276 277 278 279 281 283 285 286 286 285 282 282 282 282 282 283 284 285 285 287 287 283 282 281 280 280 280 279 278 277 277 276 273 269 267 275 282 284 284 286 287 289 292 293 294 295 296 296 297 297 298 299 298 299 292
331 325 323 324 322 317 314 315 318 317 312 307 302 295 288 283 282 281 280 279 279 279 280 281 282 283 282 280 277 273 271 271 273 277 280 283 285 286 287 287 285 284 283 282 283 283 285 286 287 289 288 285 283 282 280 280 279 278 279 277 277 277 274 271 269 272 279 284 284 285 286 287 289 291 292 293 294 296 296 295 296 297 297 298 298
330 324 320 317 311 305 304 308 310 308 303 300 301 300 295 292 289 287 285 284 285 286 287 289 289 288 289 287 283 278 276 277 279 283 286 287 287 286 286 286 284 283 282 281 282 283 283 284 285 288 290 289 287 286 284 283 280 278 279 278 277 279 277 274 272 271 276 282 284 283 284 287 289 291 292 293 294 295 295 295 295 296 294 294 297
329 326 321 316 309 302 299 302 303 299 294 292 293 294 294 295 295 292 288 285 286 288 289 291 292 292 292 291 288 286 285 286 289 291 292 292 290 288 286 285 283 281 281 280 280 281 281 282 283 287 290 289 289 290 289 288 285 281 280 279 277 277 278 277 275 274 275 279 283 283 284 287 289 290 291 290 292 293 293 294 294 293 292 292 296
326 326 323 319 314 308 303 300 297 290 285 283 283 285 288 292 293 291 287 285 285 287 289 290 292 293 293 293 291 290 290 290 292 293 294 293 291 290 287 285 282 280 280 280 279 280 280 280 282 284 285 285 286 288 290 290 290 286 284 283 280 279 281 280 278 277 275 276 282 284 285 285 287 289 288 287 288 290 290 291 291 291 291 291 293
325 323 322 319 315 312 306 302 298 292 287 284 281 282 285 287 288 285 283 283 286 289 291 293 294 294 294 294 293 292 291 290 291 292 292 291 289 288 286 284 282 280 279 279 279 280 281 281 282 283 283 283 284 285 287 288 288 287 285 286 285 282 281 280 278 277 276 276 279 282 283 283 283 285 286 286 286 287 287 288 289 287 287 288 289
327 323 320 318 314 312 308 304 302 298 294 291 287 285 285 285 285 284 284 284 285 288 291 293 295 296 295 295 293 292 291 290 290 289 288 288 286 284 283 282 281 280 279 280 280 280 281 281 282 283 283 283 284 285 286 286 287 286 285 285 285 282 280 280 279 277 275 275 275 277 279 281 281 282 285 285 283 283 282 282 282 284 284 285 287
332 328 324 319 315 312 309 306 304 301 297 294 291 288 287 285 285 286 287 288 288 289 291 292 293 294 295 296 295 294 292 290 290 289 288 286 284 283 282 281 280 280 279 279 279 280 281 281 282 283 284 284 285 286 286 287 287 287 286 285 283 281 279 279 279 277 274 274 274 275 277 279 280 281 281 279 276 278 279 278 281 285 284 285 286
335 333 329 325 320 314 310 307 305 303 299 296 293 291 289 287 286 285 286 287 289 289 290 291 292 293 293 294 294 294 292 291 290 290 289 287 286 284 282 281 280 279 279 278 278 278 279 280 281 283 284 285 285 286 286 286 287 286 287 287 284 281 279 277 277 277 275 274 273 275 276 276 277 277 275 274 276 278 280 279 281 283 284 286 288
333 332 330 328 325 320 315 310 307 305 301 297 294 291 289 287 286 286 286 287 288 289 290 291 291 292 292 292 293 292 290 289 289 288 287 286 285 284 283 282 281 280 280 279 279 279 279 280 281 282 283 284 284 285 286 285 285 284 284 285 283 282 280 277 275 274 274 274 273 274 273 273 274 275 274 276 277 277 278 277 278 281 281 282 284
330 329 328 327 325 322 319 315 312 309 306 301 297 292 289 287 285 285 285 286 288 289 290 290 291 291 292 291 291 290 288 286 286 284 283 283 282 282 281 281 280 280 280 280 280 280 280 281 282 283 284 285 285 286 286 285 285 283 282 282 280 279 278 276 275 272 270 270 272 273 272 272 276 276 274 275 275 274 276 276 276 277 276 275 277
325 325 325 324 322 320 319 317 315 313 311 307 303 298 293 289 286 285 283 283 284 285 285 287 289 290 291 291 290 288 285 285 284 283 283 283 282 281 280 280 280 279 279 280 281 282 282 282 283 283 284 286 287 288 288 288 287 286 284 283 281 278 276 273 273 273 270 268 267 268 269 270 273 274 274 273 273 274 275 275 274 273 272 271 272
321 321 321 321 320 319 317 315 314 313 313 311 309 305 300 295 291 288 285 283 282 282 282 283 285 287 288 290 290 287 285 284 284 284 284 283 282 282 281 280 280 280 280 281 281 282 284 285 285 284 284 286 288 290 290 290 289 288 286 285 283 281 279 276 274 273 272 269 267 267 270 269 268 270 272 272 274 277 275 272 272 271 269 269 271
316 316 317 317 318 318 316 314 312 311 311 311 311 309 306 302 297 293 290 288 286 285 284 283 283 284 285 286 287 286 285 285 285 285 284 283 283 282 281 281 281 281 281 282 283 284 285 287 288 287 287 289 290 292 292 291 290 289 288 286 285 284 283 281 280 277 274 271 269 270 275 274 270 272 274 271 272 274 274 273 273 271 271 272 274
313 313 313 313 314 315 315 314 312 310 309 309 309 309 307 305 302 298 296 293 292 292 291 290 288 287 287 286 286 285 285 286 286 285 284 284 283 282 282 281 281 281 282 284 285 286 287 289 290 290 290 291 292 293 293 292 291 290 289 288 287 286 284 283 283 282 279 275 273 274 277 277 274 274 275 271 267 267 268 272 274 272 271 272 271
312 311 311 311 312 312 312 312 311 311 310 308 307 307 307 305 303 301 298 296 295 295 295 294 293 292 291 290 290 289 288 288 287 287 286 286 285 284 283 282 282 281 282 284 285 286 287 288 289 289 289 290 292 293 293 292 292 291 290 289 289 288 286 284 284 283 280 277 276 275 276 279 278 276 275 273 270 268 267 269 270 269 268 267 265
311 311 311 311 311 311 311 310 310 310 310 308 306 305 305 304 303 302 300 298 297 297 297 296 295 294 293 292 292 291 290 289 289 289 289 289 288 287 285 284 284 283 283 283 284 285 286 286 287 287 288 288 289 291 292 293 292 292 291 290 289 288 286 286 286 285 282 280 278 275 275 276 276 276 275 273 272 272 270 268 267 266 266 265 264
311 311 311 311 311 311 311 310 309 310 309 308 307 305 305 304 304 305 304 301 300 299 298 297 294 293 293 293 292 290 289 289 289 289 289 289 288 288 287 286 285 284 284 284 283 284 284 285 286 286 286 286 287 289 293 294 294 294 294 293 292 288 286 287 290 289 286 284 282 278 276 274 272 272 272 271 272 270 266 264 265 265 263 262 262
310 311 310 311 311 311 311 310 309 309 309 309 308 307 306 305 306 308 307 305 304 303 301 297 292 290 291 292 292 291 289 289 289 289 289 289 288 287 287 286 285 285 284 284 283 283 284 285 286 287 287 287 288 290 292 292 291 291 292 292 291 289 288 290 292 292 289 287 285 282 279 277 274 273 270 268 267 265 262 262 264 263 259 257 258
309 310 310 310 310 310 309 308 306 307 307 307 307 307 306 307 309 311 310 309 309 309 306 300 293 289 289 289 289 290 290 290 291 291 290 289 289 289 288 287 286 285 285 284 283 283 283 284 286 287 288 287 288 290 292 292 292 291 290 289 289 290 292 292 291 290 289 288 287 284 281 279 277 275 273 270 267 264 261 260 262 262 259 256 255
310 310 309 309 309 309 308 306 305 304 304 305 305 305 306 308 310 311 311 312 313 312 308 304 300 296 294 292 290 290 290 291 292 293 293 293 293 293 292 291 291 290 289 289 289 288 288 287 288 288 289 288 288 290 292 294 295 295 293 292 292 293 295 294 292 291 291 289 288 286 284 282 279 277 276 274 271 268 266 264 263 264 264 262 261
310 310 309 309 308 308 307 306 305 304 304 304 303 303 305 307 307 308 310 312 314 312 309 306 303 301 301 300 300 298 297 296 295 295 297 298 298 298 297 297 297 296 295 294 295 296 295 294 295 295 295 294 293 294 295 297 298 297 296 296 297 297 296 294 293 292 291 290 288 287 285 283 281 279 278 277 274 271 269 268 266 264 263 263 262
311 310 309 309 308 308 307 306 306 305 305 304 303 302 303 304 305 307 309 311 312 312 312 312 309 306 306 307 309 309 307 306 304 302 302 304 304 304 304 303 303 302 300 300 302 302 301 300 301 302 302 302 301 301 302 302 302 300 299 298 298 297 295 292 291 289 288 287 286 284 283 283 282 281 280 280 281 280 276 273 272 269 265 263 262
311 310 310 309 308 309 309 309 309 307 304 302 300 300 301 301 301 304 306 307 308 309 311 314 314 313 314 315 318 319 317 315 314 311 310 311 311 310 309 308 308 306 304 305 306 306 306 306 307 308 308 308 307 307 307 306 305 303 301 300 297 295 292 290 288 287 287 286 285 283 282 281 281 282 282 282 283 284 280 276 274 272 268 267 268
312 311 311 310 310 310 310 311 311 310 308 305 302 301 300 300 300 302 303 303 302 303 305 309 313 315 319 322 325 326 325 323 322 321 319 316 315 314 313 312 312 310 307 307 308 308 309 309 309 310 311 311 311 310 310 311 311 309 307 304 302 299 294 290 289 290 290 290 290 290 287 284 283 283 283 282 281 281 279 277 275 273 272 272 271
313 313 313 314 313 312 312 311 312 312 313 311 308 307 306 305 304 303 303 301 300 300 303 308 312 314 317 322 325 326 326 326 326 326 326 323 320 320 320 318 315 312 310 309 309 309 310 310 311 312 313 314 314 314 315 316 316 315 313 311 309 305 300 296 294 295 296 296 296 296 294 291 289 287 285 284 282 280 279 279 277 275 274 273 270
316 316 317 317 317 316 315 314 313 313 314 314 313 312 312 311 309 307 306 303 301 304 307 310 311 312 314 318 321 323 324 324 325 326 329 330 329 328 326 323 319 317 317 315 312 311 310 311 312 313 313 313 314 315 316 318 320 322 323 322 320 316 312 307 303 301 302 302 301 299 298 296 295 292 290 288 286 284 282 280 279 276 273 270 263
320 320 321 321 321 321 320 317 316 315 315 316 316 315 316 316 314 313 311 306 305 311 316 313 306 306 309 313 316 318 319 321 322 323 327 329 329 328 327 325 323 322 323 322 318 316 315 314 314 312 310 311 312 314 316 319 323 327 331 332 331 329 326 322 317 313 311 309 306 304 303 302 300 298 296 293 290 286 283 279 275 270 265 258 249
324 325 325 325 325 324 323 322 321 319 317 317 317 316 317 318 318 317 314 305 303 314 320 310 301 301 305 308 311 314 316 317 318 319 321 323 323 324 325 324 322 322 324 323 320 319 319 318 317 315 313 314 315 318 321 324 327 332 335 337 337 337 337 336 333 330 326 321 318 315 313 310 307 304 301 297 292 286 281 274 266 258 250 241 233
326 328 328 328 327 327 326 326 325 323 322 320 318 316 316 317 319 320 317 307 300 303 305 299 297 301 304 305 306 309 311 311 311 312 316 318 319 321 322 320 318 319 321 321 320 319 320 321 320 319 320 320 322 324 327 329 333 336 339 341 342 342 343 342 340 337 335 334 333 332 329 326 321 314 306 298 290 283 275 265 255 245 234 226 222
325 328 329 328 328 328 328 327 327 327 326 325 322 320 318 316 316 318 318 313 304 299 297 299 302 306 307 307 308 307 307 307 308 311 313 316 318 320 320 318 318 319 321 322 321 320 319 320 321 324 326 327 328 330 332 335 337 338 339 341 342 343 344 343 340 338 338 339 341 341 340 339 336 327 314 300 288 278 267 252 239 232 224 220 218
324 326 327 327 327 328 328 328 329 329 329 329 327 326 324 322 320 319 319 318 315 310 307 310 313 313 312 312 312 311 310 309 309 310 312 314 316 318 319 318 318 320 323 324 321 318 319 322 324 328 331 333 333 335 336 337 339 339 339 339 341 342 343 343 342 339 337 338 341 342 341 339 338 334 324 310 296 282 265 242 227 222 218 216 214
324 325 326 325 326 328 329 329 329 330 332 332 331 331 331 329 327 325 323 322 322 319 316 316 318 317 314 313 313 313 313 312 310 309 310 312 314 315 317 321 322 322 324 322 317 316 320 324 327 331 336 337 338 338 338 339 340 340 339 339 339 341 341 341 340 338 336 336 339 341 340 337 334 333 326 315 303 293 279 258 238 232 226 219 212
323 324 325 324 325 327 329 329 330 331 333 334 333 333 333 333 331 330 329 326 325 324 323 322 322 320 316 314 313 314 314 313 313 311 311 312 313 313 315 320 321 317 316 315 314 315 320 325 329 334 338 340 340 339 339 340 340 340 339 338 338 339 340 339 338 337 338 339 339 339 339 337 333 329 323 312 300 291 282 262 236 230 223 214 206
322 323 324 324 324 326 328 329 330 330 331 333 334 334 334 334 333 332 331 329 327 326 326 325 325 324 324 321 318 318 317 316 315 314 313 313 313 313 313 315 315 311 312 316 319 321 324 327 331 334 337 339 339 338 338 340 340 340 340 339 338 338 339 339 338 339 340 342 341 342 342 340 336 331 324 315 301 287 272 242 215 204 195 193 194
322 323 323 323 323 324 327 328 329 330 331 333 334 334 334 334 334 333 332 331 328 327 326 326 325 325 327 327 325 324 323 322 320 319 319 317 316 315 315 315 315 315 317 322 325 326 327 327 327 328 330 332 332 331 333 336 337 337 337 337 337 336 335 335 335 337 340 342 342 344 344 342 338 335 330 323 313 301 284 248 217 203 191 189 192
323 323 323 323 323 323 325 326 327 328 329 331 332 332 332 334 335 335 334 333 332 331 330 330 328 327 328 330 330 330 330 330 328 324 322 319 317 316 316 316 316 316 318 321 323 324 324 323 323 324 324 324 323 323 325 327 328 329 329 330 331 332 331 331 331 330 331 332 332 335 338 338 337 334 331 328 324 318 314 302 276 247 219 205 204
323 324 324 323 322 322 323 323 324 325 326 327 329 330 331 333 335 337 337 338 337 336 336 336 335 333 332 333 334 334 334 333 331 328 326 325 323 322 323 323 322 322 322 321 322 322 322 322 323 323 322 320 320 320 320 319 319 320 320 320 322 323 323 323 323 323 323 323 323 323 323 321 320 319 318 317 315 311 308 304 296 285 270 253 242
321 323 324 323 322 321 321 321 322 323 324 325 326 327 330 332 334 336 338 339 339 339 338 338 338 336 335 335 335 335 336 338 339 340 342 343 342 340 339 336 334 332 329 327 325 325 325 326 327 327 326 326 326 324 322 320 319 318 317 316 315 314 313 313 314 315 316 316 317 317 316 313 310 306 301 296 293 289 286 283 281 276 271 267 261
319 321 322 323 322 322 321 321 321 322 322 323 324 326 328 329 330 333 335 336 337 337 338 338 337 336 335 335 335 336 338 340 342 344 345 346 347 347 346 345 343 342 341 338 337 336 336 336 337 337 337 337 337 335 332 330 327 325 324 323 321 319 318 316 315 314 314 315 315 315 315 313 312 310 307 301 294 286 276 267 260 254 250 249 244
318 319 320 321 321 321 320 320 319 320 321 322 323 324 325 325 326 328 330 331 332 333 334 335 336 335 334 334 335 336 337 337 339 340 341 342 344 345 347 348 348 347 347 346 346 347 347 346 346 346 346 346 346 346 345 342 340 338 336 337 338 337 335 332 330 329 327 327 328 327 327 327 326 324 324 322 316 309 300 285 267 243 219 204 190
317 318 319 320 320 319 320 319 318 318 318 319 320 320 321 322 323 325 325 326 327 328 329 330 332 334 335 334 334 335 336 335 335 336 337 340 342 344 345 346 346 346 347 348 350 351 351 351 351 350 348 348 349 350 351 351 351 349 348 348 350 351 350 349 350 350 350 351 351 350 350 351 351 351 353 357 355 348 339 329 321 322 106 124 132
317 318 318 319 319 319 318 318 317 316 315 315 316 317 318 319 320 320 321 321 321 321 324 326 328 331 333 333 333 335 336 336 336 336 337 339 342 343 344 345 345 345 345 346 347 348 349 351 352 352 350 350 350 350 352 354 355 355 353 351 351 354 355 356 355 356 360 4 4 2 359 356 356 356 359 4 9 10 4 356 357 14 54 84 96
317 317 317 316 316 317 317 316 315 314 313 312 313 314 315 316 317 317 318 319 317 317 318 321 324 326 327 329 331 333 336 338 338 338 339 340 341 343 344 345 344 344 344 344 346 347 348 349 351 352 352 352 351 350 350 351 352 353 353 353 353 354 355 354 355 357 0 3 4 3 3 2 2 3 6 8 15 20 24 26 31 39 51 66 76
317 315 315 315 315 315 315 315 314 313 311 310 310 311 312 313 314 314 316 317 316 315 314 316 319 321 322 324 326 329 333 337 338 338 340 341 341 342 344 345 345 345 345 344 345 346 346 348 350 352 353 354 352 352 351 351 351 351 352 354 356 358 360 1 1 1 1 1 2 4 9 12 15 18 23 26 28 30 32 34 35 37 39 45 51
316 314 313 314 314 315 316 315 314 313 312 311 309 309 310 310 311 311 313 314 315 315 314 313 314 316 318 321 323 325 328 332 334 335 338 339 339 340 342 344 345 346 345 345 346 346 346 346 347 350 354 356 356 355 355 353 353 353 356 357 358 360 3 5 4 2 360 360 2 6 10 14 20 25 29 32 33 32 31 31 31 30 32 36 39
315 314 313 313 313 314 315 315 315 314 313 312 310 309 309 309 309 309 310 311 312 313 312 311 311 312 314 317 320 322 323 326 328 331 334 334 335 337 339 340 341 342 343 345 346 346 345 344 345 349 353 356 357 358 357 356 356 357 359 1 2 2 2 2 2 2 1 2 5 9 11 13 17 20 21 25 29 30 31 34 34 33 34 35 35
315 315 314 314 314 314 314 314 314 315 314 312 311 310 309 308 308 307 307 308 309 309 310 309 309 308 310 312 316 318 319 320 323 326 328 329 330 331 333 335 336 336 338 341 344 345 344 344 346 348 350 352 354 356 356 355 355 357 2 5 6 5 4 2 2 3 4 3 5 8 9 11 13 15 16 20 25 28 30 34 35 35 37 40 40
317 316 315 315 315 315 315 314 314 314 314 313 312 311 311 309 308 307 306 306 306 306 307 306 306 306 306 307 311 314 314 315 317 319 322 324 326 327 329 331 332 332 334 336 337 339 341 341 343 346 346 346 347 350 352 352 351 353 360 7 8 5 2 2 4 6 7 5 4 4 5 7 9 10 11 14 19 22 25 29 33 36 38 41 43
318 317 317 316 316 316 315 314 314 314 313 313 312 312 311 310 309 308 306 305 305 305 304 304 303 303 302 303 306 309 310 310 312 314 316 320 322 323 325 326 328 329 331 331 331 333 335 335 336 338 339 338 339 341 344 346 345 347 354 2 3 358 356 359 3 7 8 6 3 3 3 5 7 9 10 12 15 18 22 24 28 31 32 36 38
320 318 317 317 316 316 316 315 314 314 314 313 313 312 312 311 310 309 307 306 305 305 304 304 302 301 300 300 302 305 306 307 308 309 312 314 316 318 320 322 324 326 328 327 328 329 329 328 328 328 329 331 332 333 336 338 338 339 345 352 351 347 347 352 358 4 5 4 2 1 2 4 7 8 9 8 9 11 13 16 16 10 360 357 360
Height
1459 1458 1458 1457 1456 1456 1455 1454 1453 1452 1451 1450 1449 1448 1447 1446 1445 1444 1444 1443 1442 1442 1441 1441 1441 1441 1440 1440 1440 1439 1439 1438 1438 1437 1436 1436 1435 1435 1434 1434 1433 1431 1431 1431 1431 1431 1430 1429 1428 1428 1429 1428 1427 1428 1428 1428 1428 1427 1427 1426 1426 1426 1425 1424 1420 1410 1406 1410 1412 1410 1411 1413 1411 1411 1411 1410 1411 1411 1410 1409 1409 1408 1407 1406 1407
1457 1457 1456 1455 1454 1453 1453 1452 1451 1451 1450 1449 1448 1447 1446 1445 1444 1443 1442 1442 1441 1440 1439 1439 1438 1438 1438 1438 1437 1437 1436 1436 1435 1435 1434 1433 1433 1432 1432 1431 1429 1428 1428 1427 1427 1427 1426 1425 1424 1424 1425 1424 1423 1423 1423 1423 1423 1422 1422 1422 1421 1420 1421 1420 1417 1411 1404 1403 1407 1407 1407 1408 1406 1406 1408 1407 1406 1407 1406 1405 1405 1404 1403 1402 1402
1457 1456 1454 1453 1452 1451 1450 1449 1449 1448 1447 1447 1446 1445 1444 1443 1442 1441 1441 1440 1439 1438 1438 1437 1436 1436 1435 1435 1435 1434 1434 1433 1433 1432 1431 1431 1430 1429 1428 1427 1426 1425 1424 1424 1423 1423 1422 1421 1420 1420 1421 1420 1418 1419 1418 1418 1418 1418 1417 1417 1416 1415 1416 1416 1414 1410 1404 1399 1401 1403 1402 1402 1402 1401 1403 1403 1402 1402 1401 1401 1401 1400 1399 1399 1398
1455 1454 1453 1452 1450 1449 1448 1446 1445 1445 1444 1444 1443 1442 1442 1440 1440 1439 1438 1438 1437 1436 1436 1435 1434 1433 1433 1432 1432 1431 1431 1430 1430 1429 1428 1427 1426 1425 1425 1424 1423 1421 1421 1420 1420 1419 1419 1417 1417 1417 1417 1416 1414 1414 1415 1413 1413 1413 1412 1412 1412 1410 1410 1411 1410 1407 1404 1398 1395 1397 1398 1397 1396 1397 1398 1398 1398 1398 1397 1396 1396 1395 1395 1395 1394
1453 1452 1451 1449 1448 1447 1446 1444 1443 1441 1440 1440 1439 1439 1438 1438 1437 1436 1435 1435 1434 1433 1433 1432 1431 1431 1430 1430 1429 1428 1428 1427 1426 1425 1425 1424 1422 1421 1421 1420 1419 1418 1417 1416 1416 1415 1415 1413 1413 1413 1413 1412 1411 1410 1410 1410 1409 1408 1407 1406 1406 1405 1405 1405 1405 1403 1402 1397 1391 1391 1393 1393 1392 1392 1393 1393 1393 1393 1392 1391 1391 1390 1390 1390 1389
1451 1450 1449 1448 1446 1446 1444 1443 1441 1440 1438 1437 1436 1435 1435 1434 1433 1432 1431 1431 1430 1430 1430 1429 1428 1428 1427 1427 1426 1425 1425 1423 1422 1421 1421 1420 1419 1418 1417 1416 1415 1414 1413 1412 1411 1411 1410 1409 1409 1409 1409 1407 1407 1406 1406 1406 1405 1403 1402 1401 1401 1401 1400 1400 1400 1399 1397 1394 1390 1387 1388 1388 1388 1387 1387 1388 1388 1388 1387 1386 1386 1385 1386 1385 1385
1450 1448 1447 1446 1445 1444 1443 1441 1440 1438 1436 1435 1433 1432 1431 1430 1430 1429 1428 1427 1426 1426 1426 1426 1425 1424 1424 1424 1423 1422 1422 1420 1419 1418 1417 1416 1415 1414 1413 1412 1411 1410 1409 1408 1407 1406 1405 1405 1404 1404 1404 1403 1402 1402 1401 1400 1399 1398 1397 1396 1396 1396 1395 1394 1395 1394 1393 1390 1387 1384 1383 1384 1383 1382 1382 1383 1383 1382 1382 1381 1380 1379 1380 1381 1379
1448 1446 1445 1443 1442 1441 1440 1439 1438 1436 1435 1433 1431 1429 1428 1427 1426 1425 1424 1423 1422 1422 1421 1422 1421 1421 1420 1420 1420 1419 1418 1417 1416 1414 1413 1412 1411 1410 1409 1408 1406 1405 1404 1403 1403 1402 1401 1400 1400 1399 1399 1399 1398 1397 1396 1395 1394 1393 1392 1392 1392 1391 1390 1390 1389 1389 1388 1386 1383 1381 1380 1379 1379 1378 1378 1378 1377 1376 1376 1377 1375 1373 1375 1375 1374
1446 1444 1443 1441 1440 1438 1437 1436 1435 1434 1432 1431 1429 1427 1425 1424 1423 1422 1421 1419 1418 1417 1417 1417 1417 1417 1417 1416 1416 1415 1414 1413 1412 1410 1409 1407 1406 1405 1404 1403 1402 1401 1400 1399 1398 1397 1396 1395 1395 1395 1394 1394 1393 1392 1392 1391 1390 1388 1387 1387 1387 1386 1385 1385 1384 1383 1383 1381 1379 1377 1376 1374 1373 1372 1373 1372 1370 1370 1372 1372 1370 1368 1369 1369 1368
1446 1443 1441 1439 1438 1436 1434 1432 1431 1430 1429 1427 1426 1424 1422 1421 1419 1418 1417 1415 1414 1413 1413 1413 1412 1412 1412 1412 1412 1411 1410 1409 1408 1406 1404 1402 1401 1400 1399 1398 1397 1396 1395 1394 1393 1392 1392 1391 1390 1390 1390 1389 1389 1388 1387 1386 1385 1384 1383 1382 1382 1381 1380 1379 1378 1378 1377 1376 1374 1373 1372 1369 1367 1367 1367 1366 1365 1366 1366 1366 1364 1364 1365 1364 1361
1446 1444 1441 1439 1436 1434 1431 1429 1428 1426 1425 1424 1422 1420 1418 1417 1415 1414 1412 1411 1410 1409 1409 1408 1408 1408 1407 1407 1407 1406 1405 1404 1403 1402 1400 1398 1397 1395 1394 1393 1392 1391 1390 1388 1387 1387 1386 1386 1385 1385 1384 1384 1383 1383 1382 1381 1380 1378 1377 1376 1376 1376 1374 1373 1372 1372 1372 1371 1369 1369 1367 1363 1361 1361 1361 1361 1361 1360 1360 1360 1359 1359 1360 1358 1355
1444 1442 1440 1438 1436 1432 1429 1426 1424 1423 1421 1420 1419 1417 1415 1413 1411 1410 1408 1407 1406 1406 1405 1404 1403 1403 1403 1402 1402 1401 1400 1398 1398 1396 1395 1393 1392 1390 1389 1387 1386 1385 1384 1383 1382 1381 1380 1380 1379 1379 1379 1378 1378 1377 1376 1375 1374 1372 1371 1370 1369 1369 1368 1368 1366 1365 1365 1365 1364 1363 1361 1358 1356 1355 1355 1356 1356 1355 1355 1355 1354 1354 1354 1353 1350
1441 1439 1437 1435 1433 1430 1428 1425 1422 1420 1418 1416 1415 1413 1411 1409 1407 1406 1405 1404 1403 1402 1401 1400 1399 1398 1398 1397 1397 1396 1394 1393 1392 1391 1389 1388 1387 1385 1383 1382 1380 1380 1379 1378 1377 1376 1375 1374 1373 1373 1373 1373 1372 1371 1369 1368 1367 1365 1364 1363 1362 1362 1361 1361 1360 1359 1359 1359 1358 1355 1354 1353 1351 1349 1350 1351 1352 1351 1349 1348 1348 1348 1347 1346 1344
1439 1437 1434 1431 1429 1427 1425 1423 1420 1418 1415 1413 1411 1409 1407 1406 1404 1403 1401 1400 1399 1398 1397 1396 1395 1394 1393 1392 1392 1390 1389 1388 1387 1385 1384 1383 1382 1380 1378 1377 1375 1374 1374 1373 1372 1371 1370 1369 1367 1367 1367 1367 1366 1365 1363 1362 1360 1358 1357 1356 1355 1355 1354 1353 1352 1352 1352 1352 1351 1348 1346 1346 1345 1344 1345 1347 1347 1346 1344 1343 1343 1342 1341 1339 1339
1436 1434 1431 1429 1426 1423 1421 1419 1417 1415 1412 1410 1407 1405 1404 1402 1401 1399 1398 1397 1395 1394 1393 1391 1390 1389 1388 1387 1386 1385 1383 1383 1382 1380 1380 1379 1377 1375 1373 1372 1371 1370 1369 1368 1367 1366 1365 1364 1362 1361 1361 1361 1360 1358 1357 1355 1353 1351 1350 1349 1348 1348 1347 1346 1346 1345 1345 1345 1343 1340 1339 1339 1339 1338 1339 1340 1340 1340 1339 1339 1339 1337 1335 1333 1333
1432 1430 1427 1425 1423 1420 1418 1415 1413 1411 1408 1406 1404 1402 1401 1399 1397 1396 1394 1393 1392 1390 1389 1387 1386 1385 1384 1382 1381 1379 1378 1378 1377 1375 1374 1374 1372 1369 1368 1367 1366 1365 1364 1363 1362 1361 1360 1358 1357 1356 1356 1355 1354 1352 1350 1349 1347 1345 1343 1341 1341 1340 1339 1340 1340 1339 1338 1338 1335 1333 1332 1332 1331 1331 1332 1333 1333 1333 1334 1334 1333 1332 1330 1328 1326
1429 1426 1424 1421 1419 1417 1414 1411 1409 1407 1405 1403 1400 1398 1397 1395 1394 1392 1390 1389 1388 1386 1384 1383 1382 1380 1379 1378 1376 1375 1373 1373 1371 1370 1369 1368 1366 1364 1362 1362 1361 1360 1359 1358 1357 1355 1354 1352 1351 1351 1350 1349 1348 1346 1344 1343 1340 1338 1336 1334 1333 1332 1331 1333 1332 1331 1331 1330 1328 1327 1326 1325 1324 1323 1325 1326 1326 1328 1329 1327 1324 1324 1324 1323 1320
1425 1423 1420 1418 1415 1413 1411 1408 1405 1403 1400 1398 1396 1394 1392 1390 1388 1387 1386 1384 1383 1382 1381 1379 1378 1376 1375 1374 1372 1371 1369 1368 1367 1365 1364 1362 1360 1358 1357 1356 1356 1355 1355 1354 1352 1350 1349 1347 1346 1344 1344 1343 1342 1340 1339 1337 1335 1333 1331 1328 1326 1324 1325 1325 1324 1323 1323 1322 1320 1320 1319 1318 1317 1316 1317 1318 1319 1322 1322 1318 1316 1318 1318 1316 1313
1423 1420 1417 1415 1412 1410 1407 1405 1402 1399 1397 1394 1392 1390 1388 1386 1384 1383 1381 1380 1378 1378 1377 1376 1374 1373 1371 1370 1369 1367 1365 1363 1362 1361 1359 1357 1355 1353 1352 1351 1351 1350 1349 1348 1347 1345 1343 1341 1340 1339 1338 1337 1336 1334 1334 1333 1331 1328 1327 1324 1321 1318 1318 1319 1317 1315 1314 1313 1312 1312 1310 1310 1309 1308 1308 1309 1311 1313 1313 1311 1312 1311 1309 1307 1307
1420 1417 1414 1412 1409 1407 1405 1402 1399 1397 1394 1391 1389 1387 1385 1383 1381 1379 1378 1376 1375 1373 1372 1371 1370 1369 1368 1367 1365 1364 1361 1359 1357 1356 1354 1353 1351 1350 1348 1347 1346 1345 1344 1343 1341 1339 1337 1336 1335 1333 1332 1331 1330 1329 1328 1328 1326 1324 1322 1319 1316 1313 1313 1312 1310 1309 1308 1305 1304 1303 1302 1302 1301 1300 1300 1300 1301 1303 1304 1305 1305 1304 1302 1301 1301
1416 1414 1411 1409 1406 1404 1401 1399 1397 1394 1392 1389 1387 1384 1382 1380 1379 1377 1375 1374 1372 1370 1369 1367 1366 1364 1363 1363 1362 1360 1358 1355 1353 1352 1351 1349 1348 1347 1345 1344 1342 1341 1339 1337 1335 1333 1331 1330 1329 1328 1327 1326 1325 1324 1323 1322 1321 1318 1316 1314 1311 1310 1309 1307 1304 1303 1301 1299 1297 1296 1294 1294 1293 1293 1293 1292 1292 1294 1296 1297 1298 1298 1297 1297 1296
1413 1411 1408 1406 1403 1401 1398 1396 1394 1391 1389 1387 1384 1382 1380 1378 1376 1375 1373 1372 1370 1368 1366 1365 1363 1361 1360 1359 1358 1357 1355 1353 1351 1349 1348 1347 1346 1344 1343 1341 1339 1337 1334 1332 1330 1328 1326 1325 1324 1324 1323 1322 1321 1320 1318 1317 1315 1313 1311 1309 1307 1306 1305 1302 1300 1298 1296 1294 1292 1290 1288 1287 1286 1286 1286 1285 1285 1286 1288 1289 1291 1291 1291 1291 1291
1410 1408 1405 1402 1400 1398 1395 1393 1391 1389 1386 1384 1382 1379 1378 1376 1373 1372 1371 1369 1367 1365 1363 1362 1360 1358 1356 1355 1354 1353 1351 1350 1349 1347 1346 1344 1343 1341 1340 1338 1335 1333 1330 1328 1326 1325 1323 1322 1321 1320 1319 1318 1317 1315 1314 1312 1310 1308 1306 1304 1302 1301 1299 1298 1296 1294 1291 1290 1288 1285 1283 1282 1281 1280 1279 1279 1279 1280 1281 1282 1283 1283 1283 1283 1284
1407 1405 1402 1400 1397 1395 1392 1390 1388 1386 1384 1381 1379 1377 1375 1373 1371 1369 1368 1366 1364 1363 1361 1359 1357 1355 1352 1350 1349 1348 1347 1347 1346 1345 1343 1341 1340 1338 1337 1334 1332 1330 1328 1326 1324 1322 1321 1320 1318 1317 1316 1314 1312 1311 1308 1307 1305 1302 1300 1299 1297 1296 1294 1292 1291 1289 1287 1285 1283 1281 1279 1278 1276 1275 1274 1274 1274 1274 1274 1275 1275 1275 1276 1276 1276
1404 1402 1400 1397 1395 1392 1389 1387 1385 1384 1381 1379 1376 1374 1372 1370 1367 1366 1364 1363 1362 1360 1359 1357 1355 1351 1348 1346 1344 1344 1343 1342 1342 1341 1340 1339 1337 1335 1333 1331 1329 1327 1325 1323 1322 1320 1318 1317 1315 1314 1312 1310 1308 1305 1303 1301 1299 1297 1295 1293 1292 1290 1289 1287 1286 1284 1282 1280 1278 1276 1274 1273 1272 1270 1269 1269 1268 1268 1268 1268 1268 1269 1269 1269 1269
1401 1399 1397 1394 1392 1389 1387 1385 1382 1381 1379 1376 1374 1372 1369 1367 1364 1363 1361 1359 1358 1357 1355 1353 1351 1347 1345 1342 1340 1339 1339 1338 1338 1337 1336 1334 1332 1331 1329 1327 1325 1324 1322 1320 1318 1316 1315 1313 1311 1310 1308 1305 1303 1301 1298 1296 1295 1293 1291 1289 1288 1286 1285 1283 1281 1279 1277 1275 1274 1272 1270 1268 1267 1265 1264 1263 1263 1262 1262 1262 1262 1262 1262 1262 1261
1398 1396 1394 1391 1389 1387 1384 1382 1379 1378 1376 1374 1372 1369 1367 1365 1362 1360 1358 1356 1354 1353 1352 1350 1347 1344 1341 1339 1337 1336 1335 1334 1333 1332 1330 1328 1327 1325 1324 1322 1320 1319 1318 1316 1314 1313 1311 1309 1308 1306 1304 1302 1300 1297 1295 1293 1291 1289 1288 1286 1284 1283 1281 1280 1278 1276 1274 1272 1270 1267 1266 1264 1262 1260 1259 1258 1258 1257 1257 1257 1256 1256 1256 1256 1256
1396 1394 1391 1389 1386 1384 1382 1379 1377 1374 1372 1371 1369 1367 1364 1362 1360 1358 1356 1353 1351 1350 1349 1348 1345 1342 1339 1336 1334 1332 1331 1330 1329 1327 1326 1324 1322 1321 1319 1318 1316 1315 1314 1313 1311 1309 1307 1305 1304 1302 1301 1298 1296 1294 1292 1290 1288 1286 1285 1283 1281 1280 1278 1277 1275 1273 1271 1269 1266 1264 1262 1260 1259 1257 1255 1254 1253 1253 1253 1252 1252 1252 1251 1251 1251
1394 1392 1389 1386 1384 1382 1379 1377 1375 1372 1369 1368 1366 1364 1362 1360 1357 1356 1354 1352 1350 1349 1348 1346 1343 1340 1337 1334 1332 1329 1328 1327 1326 1325 1324 1323 1321 1319 1317 1315 1313 1312 1312 1310 1308 1306 1304 1302 1301 1299 1297 1295 1293 1291 1288 1287 1285 1284 1283 1281 1279 1278 1276 1274 1272 1271 1269 1266 1263 1261 1259 1257 1256 1254 1253 1251 1250 1250 1249 1249 1248 1248 1249 1249 1249
1392 1390 1387 1385 1382 1379 1377 1375 1372 1370 1367 1365 1363 1361 1360 1358 1356 1353 1352 1351 1349 1348 1347 1344 1342 1339 1336 1334 1331 1329 1327 1325 1324 1323 1322 1321 1319 1317 1315 1313 1312 1310 1309 1308 1306 1304 1301 1300 1298 1296 1294 1292 1290 1288 1286 1284 1282 1281 1281 1279 1278 1276 1274 1273 1271 1269 1267 1265 1262 1259 1257 1255 1253 1252 1251 1250 1249 1248 1248 1248 1247 1247 1247 1247 1247
1389 1387 1385 1383 1380 1378 1375 1373 1370 1368 1365 1363 1360 1357 1355 1354 1354 1352 1350 1348 1348 1347 1345 1342 1340 1338 1335 1332 1330 1328 1326 1324 1322 1320 1319 1318 1317 1315 1313 1311 1310 1308 1307 1306 1304 1301 1299 1297 1295 1293 1291 1290 1288 1286 1284 1282 1280 1279 1278 1278 1276 1275 1273 1271 1270 1269 1267 1264 1261 1258 1256 1254 1253 1252 1252 1251 1249 1248 1247 1247 1247 1247 1247 1247 1247
1388 1385 1383 1381 1379 1377 1374 1371 1369 1366 1363 1361 1359 1356 1352 1350 1349 1348 1348 1346 1345 1343 1342 1340 1338 1335 1333 1331 1328 1326 1324 1322 1320 1318 1316 1315 1314 1313 1311 1309 1307 1306 1305 1303 1301 1299 1297 1294 1292 1290 1289 1287 1286 1285 1283 1280 1279 1277 1276 1276 1275 1273 1271 1270 1269 1268 1266 1264 1261 1258 1256 1254 1253 1252 1253 1253 1251 1249 1248 1247 1247 1247 1247 1248 1248
1387 1384 1382 1379 1377 1375 1372 1370 1367 1365 1362 1359 1357 1354 1351 1348 1345 1343 1343 1342 1341 1340 1339 1337 1335 1333 1331 1329 1326 1324 1321 1320 1318 1315 1314 1312 1311 1310 1308 1306 1304 1303 1302 1301 1299 1297 1294 1292 1290 1288 1287 1285 1284 1283 1281 1279 1277 1276 1275 1274 1273 1272 1271 1270 1269 1267 1266 1264 1261 1258 1256 1255 1254 1253 1254 1254 1253 1251 1249 1248 1247 1247 1248 1249 1250
1386 1383 1381 1378 1375 1373 1371 1368 1366 1363 1361 1358 1355 1353 1351 1348 1345 1342 1340 1338 1337 1336 1334 1333 1332 1330 1329 1327 1325 1322 1319 1317 1315 1312 1311 1309 1308 1307 1305 1304 1302 1301 1300 1299 1297 1295 1292 1290 1288 1287 1285 1284 1283 1282 1280 1278 1276 1275 1274 1273 1272 1271 1270 1269 1268 1267 1265 1263 1261 1259 1257 1256 1256 1255 1255 1255 1254 1253 1251 1249 1248 1248 1249 1250 1251
1384 1382 1380 1377 1374 1372 1370 1367 1365 1362 1360 1357 1355 1352 1349 1347 1345 1342 1340 1337 1335 1332 1331 1329 1327 1326 1325 1324 1322 1320 1318 1315 1312 1310 1307 1306 1304 1303 1302 1301 1300 1299 1298 1296 1295 1293 1291 1289 1287 1286 1284 1283 1282 1281 1280 1278 1276 1274 1273 1272 1271 1270 1270 1269 1267 1266 1264 1263 1262 1260 1259 1258 1257 1257 1256 1256 1255 1254 1252 1251 1250 1250 1250 1250 1251
1382 1380 1377 1375 1373 1370 1368 1366 1363 1361 1359 1356 1354 1351 1349 1346 1344 1341 1339 1337 1335 1332 1329 1327 1325 1324 1323 1321 1320 1318 1316 1313 1311 1308 1305 1303 1301 1300 1298 1297 1296 1296 1295 1294 1293 1292 1290 1288 1286 1285 1284 1282 1282 1281 1279 1277 1276 1274 1273 1272 1271 1270 1269 1268 1267 1266 1264 1263 1262 1261 1260 1259 1258 1258 1257 1256 1256 1255 1254 1253 1252 1252 1252 1252 1252
1380 1377 1375 1373 1371 1368 1366 1364 1362 1360 1357 1355 1353 1350 1348 1346 1343 1341 1338 1336 1334 1331 1329 1326 1324 1322 1320 1318 1316 1315 1313 1311 1309 1307 1304 1302 1299 1298 1296 1295 1294 1294 1293 1292 1291 1290 1289 1287 1285 1284 1282 1281 1280 1279 1278 1277 1276 1275 1273 1272 1271 1270 1269 1268 1267 1266 1264 1263 1262 1261 1261 1260 1259 1258 1257 1256 1256 1256 1255 1255 1254 1254 1254 1254 1254
1377 1375 1373 1371 1369 1367 1364 1362 1360 1358 1356 1354 1351 1349 1346 1344 1342 1340 1338 1336 1333 1331 1328 1326 1323 1320 1317 1315 1314 1312 1311 1309 1308 1306 1303 1301 1299 1297 1295 1294 1293 1292 1291 1291 1290 1288 1287 1285 1284 1282 1281 1280 1279 1278 1277 1276 1275 1274 1273 1272 1271 1270 1269 1268 1267 1266 1264 1263 1262 1261 1261 1260 1259 1258 1257 1256 1256 1256 1256 1256 1255 1255 1255 1255 1255
1374 1373 1371 1369 1367 1365 1363 1361 1359 1356 1354 1352 1350 1348 1345 1343 1341 1339 1337 1335 1332 1330 1328 1325 1323 1320 1317 1315 1313 1310 1309 1307 1305 1304 1302 1300 1298 1297 1295 1294 1293 1292 1291 1290 1289 1287 1286 1284 1283 1281 1280 1279 1277 1276 1275 1274 1273 1272 1271 1270 1270 1269 1268 1267 1266 1265 1264 1263 1262 1261 1260 1259 1259 1258 1257 1256 1255 1254 1254 1255 1255 1255 1255 1255 1255
1372 1370 1369 1367 1365 1363 1361 1359 1357 1355 1353 1350 1349 1346 1344 1342 1340 1338 1336 1334 1331 1329 1327 1325 1322 1320 1317 1315 1312 1310 1308 1306 1304 1303 1301 1300 1298 1297 1295 1294 1293 1292 1291 1289 1288 1287 1285 1284 1282 1281 1279 1278 1276 1275 1274 1273 1272 1271 1270 1269 1268 1267 1267 1266 1265 1264 1263 1262 1261 1260 1260 1259 1258 1257 1256 1255 1254 1253 1253 1254 1254 1254 1254 1254 1254
1369 1367 1366 1364 1362 1360 1358 1357 1355 1353 1351 1349 1347 1345 1343 1341 1339 1337 1335 1333 1331 1329 1327 1325 1322 1320 1318 1316 1313 1311 1309 1307 1305 1303 1302 1300 1298 1297 1295 1294 1293 1292 1290 1289 1288 1286 1285 1283 1282 1280 1279 1277 1276 1275 1273 1272 1271 1270 1269 1268 1267 1266 1266 1265 1264 1263 1262 1261 1260 1259 1259 1258 1257 1256 1255 1255 1254 1254 1254 1254 1254 1254 1254 1254 1254
1367 1365 1363 1361 1360 1358 1356 1354 1352 1351 1349 1347 1345 1344 1342 1340 1338 1336 1334 1332 1330 1328 1326 1324 1322 1320 1318 1316 1314 1312 1310 1308 1306 1304 1302 1301 1299 1297 1296 1295 1293 1292 1290 1289 1287 1286 1284 1283 1281 1280 1278 1277 1276 1274 1273 1272 1271 1270 1269 1268 1267 1266 1265 1265 1264 1263 1262 1260 1260 1259 1259 1258 1257 1256 1255 1254 1254 1254 1254 1254 1255 1254 1254 1254 1254
1364 1362 1360 1359 1357 1355 1353 1351 1350 1348 1347 1345 1343 1342 1340 1338 1336 1335 1333 1331 1329 1327 1325 1323 1321 1320 1318 1316 1314 1312 1310 1309 1307 1305 1303 1301 1299 1298 1296 1295 1293 1292 1290 1289 1287 1285 1284 1282 1281 1279 1278 1277 1276 1274 1273 1272 1271 1270 1269 1268 1267 1266 1265 1265 1264 1263 1262 1261 1260 1259 1259 1258 1257 1256 1256 1255 1254 1254 1254 1254 1255 1255 1254 1254 1254
1362 1360 1358 1356 1354 1353 1351 1349 1347 1346 1344 1343 1341 1339 1338 1336 1335 1333 1331 1330 1328 1326 1324 1322 1320 1319 1317 1315 1314 1312 1310 1308 1306 1305 1303 1301 1299 1298 1296 1294 1293 1292 1290 1288 1287 1285 1284 1282 1281 1279 1278 1277 1276 1275 1274 1272 1271 1270 1269 1268 1267 1266 1265 1264 1264 1263 1262 1261 1260 1260 1259 1258 1258 1257 1256 1256 1255 1255 1255 1254 1254 1255 1255 1254 1254
1359 1357 1355 1353 1351 1350 1348 1347 1345 1343 1342 1340 1339 1337 1336 1334 1332 1331 1329 1328 1326 1325 1323 1321 1320 1318 1316 1314 1313 1311 1309 1308 1306 1304 1303 1301 1299 1298 1296 1294 1293 1291 1290 1288 1287 1285 1283 1282 1281 1279 1278 1277 1276 1275 1274 1273 1272 1271 1269 1268 1267 1266 1265 1264 1264 1263 1262 1262 1261 1260 1259 1259 1258 1257 1257 1256 1256 1255 1255 1255 1255 1255 1255 1255 1255
1357 1355 1353 1351 1349 1347 1345 1344 1342 1341 1339 1337 1336 1335 1333 1332 1330 1329 1327 1326 1324 1323 1321 1320 1318 1317 1315 1313 1312 1310 1309 1307 1305 1304 1302 1300 1299 1297 1295 1294 1292 1291 1289 1288 1287 1285 1284 1282 1281 1279 1278 1277 1276 1275 1274 1274 1273 1272 1270 1269 1267 1266 1265 1265 1264 1263 1263 1262 1261 1261 1260 1259 1258 1258 1257 1256 1256 1255 1255 1255 1255 1255 1255 1255 1256
1354 1352 1350 1348 1346 1344 1343 1341 1339 1338 1336 1335 1333 1332 1331 1329 1328 1326 1325 1323 1322 1320 1319 1318 1316 1315 1314 1312 1310 1309 1307 1306 1304 1303 1301 1299 1298 1296 1295 1293 1292 1291 1289 1288 1287 1285 1284 1283 1281 1280 1278 1277 1276 1276 1275 1274 1273 1272 1270 1269 1268 1267 1266 1265 1264 1264 1263 1262 1262 1261 1261 1260 1259 1258 1257 1257 1256 1256 1255 1255 1255 1255 1255 1256 1256
1351 1349 1347 1346 1344 1342 1340 1338 1337 1335 1334 1332 1331 1329 1328 1327 1325 1324 1322 1321 1320 1318 1317 1316 1314 1313 1312 1311 1309 1308 1306 1305 1303 1302 1300 1299 1297 1296 1295 1293 1292 1290 1289 1288 1286 1285 1284 1282 1281 1280 1279 1278 1277 1276 1275 1274 1273 1271 1270 1269 1268 1267 1267 1266 1265 1264 1263 1263 1262 1262 1261 1260 1259 1259 1258 1257 1257 1256 1256 1256 1256 1256 1256 1256 1257
1349 1347 1345 1343 1341 1339 1337 1336 1334 1333 1331 1330 1328 1327 1326 1324 1323 1321 1320 1319 1317 1316 1315 1313 1312 1311 1310 1309 1308 1306 1305 1303 1302 1301 1299 1298 1297 1295 1294 1292 1291 1290 1288 1287 1286 1284 1283 1282 1281 1280 1279 1278 1277 1276 1275 1273 1272 1271 1270 1269 1268 1268 1267 1266 1265 1264 1264 1263 1263 1262 1261 1261 1260 1259 1258 1258 1257 1257 1257 1256 1256 1256 1257 1257 1257
1346 1344 1342 1340 1339 1337 1335 1334 1332 1330 1329 1327 1326 1324 1323 1322 1321 1319 1318 1316 1315 1314 1313 1311 1310 1309 1308 1307 1306 1304 1303 1302 1300 1299 1297 1296 1295 1294 1293 1291 1290 1289 1287 1286 1285 1284 1283 1281 1280 1280 1279 1278 1277 1276 1275 1273 1272 1271 1270 1269 1269 1268 1267 1266 1266 1265 1264 1263 1263 1262 1262 1261 1261 1260 1259 1259 1258 1258 1258 1257 1257 1257 1257 1257 1258
1344 1342 1340 1338 1336 1335 1333 1331 1330 1328 1327 1325 1324 1322 1321 1319 1318 1317 1316 1314 1313 1311 1310 1309 1308 1307 1306 1305 1304 1302 1301 1300 1298 1297 1296 1295 1293 1292 1291 1290 1289 1288 1287 1285 1284 1283 1282 1281 1280 1279 1278 1278 1277 1275 1274 1273 1272 1271 1270 1270 1269 1268 1267 1266 1266 1265 1264 1263 1263 1263 1262 1262 1261 1260 1260 1259 1259 1258 1258 1258 1258 1258 1258 1258 1258